| time (UTC) | temp F | wind direction | speed MPH | gust MPH | rain 1hr in | rain 24hr in | rain mn in | humidity % | barometer mb |
| 20260508023049 | 68 | 0 | 0.0 | 6.0 | 0.00 | 0.00 | 0.00 | 67 | 1014.4 |
| 20260508022545 | 69 | 198 | 0.0 | 6.0 | 0.00 | 0.00 | 0.00 | 67 | 1014.4 |
| 20260508022042 | 69 | 243 | 1.0 | 6.0 | 0.00 | 0.00 | 0.00 | 65 | 1014.3 |
| 20260508021553 | 70 | 235 | 1.0 | 7.0 | 0.00 | 0.00 | 0.00 | 64 | 1014.3 |
| 20260508021045 | 71 | 220 | 2.0 | 7.0 | 0.00 | 0.00 | 0.00 | 64 | 1014.2 |
| 20260508020544 | 71 | 289 | 0.0 | 8.0 | 0.00 | 0.00 | 0.00 | 63 | 1014.1 |
| 20260508020050 | 72 | 254 | 3.0 | 8.0 | 0.00 | 0.00 | 0.00 | 60 | 1014.1 |
| 20260508015544 | 74 | 235 | 1.0 | 6.0 | 0.00 | 0.00 | 0.00 | 59 | 1014.1 |
| 20260508015042 | 75 | 232 | 1.0 | 7.0 | 0.00 | 0.00 | 0.00 | 58 | 1014.1 |
| 20260508014555 | 75 | 0 | 2.0 | 7.0 | 0.00 | 0.00 | 0.00 | 57 | 1014.1 |
| 20260508014046 | 75 | 240 | 2.0 | 9.0 | 0.00 | 0.00 | 0.00 | 57 | 1014.1 |
| 20260508013544 | 76 | 230 | 2.0 | 9.0 | 0.00 | 0.00 | 0.00 | 55 | 1014.0 |
| 20260508013055 | 77 | 228 | 2.0 | 9.0 | 0.00 | 0.00 | 0.00 | 55 | 1014.0 |
| 20260508012545 | 77 | 242 | 1.0 | 11.0 | 0.00 | 0.00 | 0.00 | 55 | 1014.0 |
| 20260508012045 | 77 | 185 | 2.0 | 11.0 | 0.00 | 0.00 | 0.00 | 55 | 1013.9 |
| 20260508011550 | 77 | 204 | 3.0 | 11.0 | 0.00 | 0.00 | 0.00 | 55 | 1013.9 |
| 20260508011049 | 77 | 235 | 2.0 | 12.0 | 0.00 | 0.00 | 0.00 | 54 | 1013.9 |
| 20260508010545 | 78 | 247 | 3.0 | 12.0 | 0.00 | 0.00 | 0.00 | 54 | 1013.9 |
| 20260508010055 | 79 | 220 | 3.0 | 9.0 | 0.00 | 0.00 | 0.00 | 51 | 1013.8 |
| 20260508005545 | 80 | 187 | 0.0 | 9.0 | 0.00 | 0.00 | 0.00 | 53 | 1013.7 |
| 20260508005049 | 79 | 229 | 2.0 | 7.0 | 0.00 | 0.00 | 0.00 | 52 | 1013.8 |
| 20260508004601 | 79 | 235 | 2.0 | 8.0 | 0.00 | 0.00 | 0.00 | 52 | 1013.8 |
| 20260508004045 | 79 | 222 | 4.0 | 9.0 | 0.00 | 0.00 | 0.00 | 52 | 1013.8 |
| 20260508003546 | 80 | 317 | 1.0 | 9.0 | 0.00 | 0.00 | 0.00 | 51 | 1013.8 |
| 20260508003048 | 79 | 239 | 3.0 | 11.0 | 0.00 | 0.00 | 0.00 | 52 | 1013.9 |
| 20260508002542 | 79 | 222 | 2.0 | 11.0 | 0.00 | 0.00 | 0.00 | 53 | 1013.8 |
| 20260508002042 | 79 | 231 | 3.0 | 11.0 | 0.00 | 0.00 | 0.00 | 52 | 1013.8 |
| 20260508001556 | 79 | 228 | 4.0 | 11.0 | 0.00 | 0.00 | 0.00 | 53 | 1013.8 |
| 20260508001043 | 80 | 220 | 3.0 | 9.0 | 0.00 | 0.00 | 0.00 | 51 | 1013.9 |
| 20260508000544 | 80 | 249 | 3.0 | 9.0 | 0.00 | 0.00 | 0.00 | 51 | 1013.9 |
| 20260508000059 | 80 | 258 | 3.0 | 10.0 | 0.00 | 0.00 | 0.00 | 51 | 1013.8 |
| 20260507235543 | 79 | 235 | 4.0 | 10.0 | 0.00 | 0.00 | 0.00 | 52 | 1013.9 |
| 20260507235049 | 79 | 246 | 4.0 | 12.0 | 0.00 | 0.00 | 0.00 | 51 | 1013.9 |
| 20260507234601 | 80 | 216 | 5.0 | 12.0 | 0.00 | 0.00 | 0.00 | 50 | 1013.9 |
| 20260507234041 | 80 | 228 | 2.0 | 10.0 | 0.00 | 0.00 | 0.00 | 52 | 1013.9 |
| 20260507233547 | 79 | 228 | 4.0 | 12.0 | 0.00 | 0.00 | 0.00 | 51 | 1013.8 |
| 20260507233052 | 79 | 218 | 4.0 | 12.0 | 0.00 | 0.00 | 0.00 | 50 | 1013.9 |
| 20260507232542 | 79 | 259 | 5.0 | 11.0 | 0.00 | 0.00 | 0.00 | 50 | 1013.8 |
| 20260507232045 | 80 | 243 | 4.0 | 10.0 | 0.00 | 0.00 | 0.00 | 50 | 1013.9 |
| 20260507231559 | 80 | 209 | 5.0 | 10.0 | 0.00 | 0.00 | 0.00 | 50 | 1013.8 |
| 20260507231046 | 81 | 235 | 3.0 | 12.0 | 0.00 | 0.00 | 0.00 | 50 | 1014.0 |
| 20260507230545 | 80 | 207 | 4.0 | 12.0 | 0.00 | 0.00 | 0.00 | 50 | 1013.9 |
| 20260507230052 | 80 | 216 | 4.0 | 12.0 | 0.00 | 0.00 | 0.00 | 49 | 1013.9 |
| 20260507225544 | 81 | 273 | 3.0 | 9.0 | 0.00 | 0.00 | 0.00 | 49 | 1013.9 |
| 20260507225045 | 81 | 248 | 3.0 | 11.0 | 0.00 | 0.00 | 0.00 | 50 | 1013.9 |
| 20260507224559 | 80 | 209 | 4.0 | 12.0 | 0.00 | 0.00 | 0.00 | 50 | 1014.0 |
| 20260507224044 | 80 | 250 | 3.0 | 12.0 | 0.00 | 0.00 | 0.00 | 50 | 1013.9 |
| 20260507223545 | 80 | 229 | 5.0 | 12.0 | 0.00 | 0.00 | 0.00 | 50 | 1013.9 |
| 20260507223053 | 80 | 231 | 4.0 | 11.0 | 0.00 | 0.00 | 0.00 | 50 | 1013.9 |
| 20260507222546 | 80 | 227 | 4.0 | 11.0 | 0.00 | 0.00 | 0.00 | 50 | 1014.1 |
| 20260507222043 | 81 | 240 | 4.0 | 9.0 | 0.00 | 0.00 | 0.00 | 49 | 1014.1 |
| 20260507221553 | 81 | 216 | 2.0 | 8.0 | 0.00 | 0.00 | 0.00 | 49 | 1014.1 |
| 20260507221045 | 81 | 221 | 3.0 | 9.0 | 0.00 | 0.00 | 0.00 | 49 | 1014.2 |
| 20260507220544 | 81 | 226 | 4.0 | 13.0 | 0.00 | 0.00 | 0.00 | 49 | 1014.3 |
| 20260507220049 | 80 | 263 | 2.0 | 13.0 | 0.00 | 0.00 | 0.00 | 52 | 1014.2 |
| 20260507215543 | 80 | 223 | 5.0 | 11.0 | 0.00 | 0.00 | 0.00 | 50 | 1014.4 |
| 20260507215045 | 81 | 253 | 4.0 | 11.0 | 0.00 | 0.00 | 0.00 | 51 | 1014.4 |
| 20260507214601 | 80 | 256 | 4.0 | 15.0 | 0.00 | 0.00 | 0.00 | 52 | 1014.5 |
| 20260507214045 | 80 | 214 | 4.0 | 15.0 | 0.00 | 0.00 | 0.00 | 52 | 1014.5 |
| 20260507213545 | 81 | 212 | 4.0 | 10.0 | 0.00 | 0.00 | 0.00 | 49 | 1014.6 |
| 20260507213049 | 81 | 226 | 4.0 | 10.0 | 0.00 | 0.00 | 0.00 | 50 | 1014.6 |
| 20260507212546 | 81 | 273 | 2.0 | 13.0 | 0.00 | 0.00 | 0.00 | 51 | 1014.7 |
| 20260507212045 | 80 | 223 | 5.0 | 13.0 | 0.00 | 0.00 | 0.00 | 51 | 1014.8 |
| 20260507211551 | 80 | 211 | 5.0 | 13.0 | 0.00 | 0.00 | 0.00 | 51 | 1014.8 |
| 20260507211044 | 81 | 209 | 4.0 | 11.0 | 0.00 | 0.00 | 0.00 | 48 | 1014.9 |
| 20260507210542 | 82 | 239 | 4.0 | 9.0 | 0.00 | 0.00 | 0.00 | 49 | 1014.7 |
| 20260507210059 | 81 | 225 | 3.0 | 11.0 | 0.00 | 0.00 | 0.00 | 50 | 1014.9 |
| 20260507205544 | 81 | 219 | 2.0 | 11.0 | 0.00 | 0.00 | 0.00 | 50 | 1014.9 |
| 20260507205045 | 81 | 251 | 4.0 | 10.0 | 0.00 | 0.00 | 0.00 | 48 | 1015.0 |
| 20260507204546 | 80 | 230 | 3.0 | 10.0 | 0.00 | 0.00 | 0.00 | 50 | 1015.0 |
| 20260507204048 | 81 | 237 | 3.0 | 8.0 | 0.00 | 0.00 | 0.00 | 48 | 1015.0 |
| 20260507203545 | 81 | 174 | 2.0 | 10.0 | 0.00 | 0.00 | 0.00 | 49 | 1015.1 |
| 20260507203104 | 81 | 237 | 2.0 | 10.0 | 0.00 | 0.00 | 0.00 | 50 | 1015.1 |
| 20260507202545 | 80 | 264 | 5.0 | 11.0 | 0.00 | 0.00 | 0.00 | 50 | 1015.3 |
| 20260507202045 | 80 | 227 | 2.0 | 11.0 | 0.00 | 0.00 | 0.00 | 50 | 1015.3 |
| 20260507201556 | 80 | 223 | 2.0 | 11.0 | 0.00 | 0.00 | 0.00 | 50 | 1015.4 |
| 20260507201045 | 80 | 268 | 2.0 | 11.0 | 0.00 | 0.00 | 0.00 | 49 | 1015.5 |
| 20260507200545 | 80 | 238 | 3.0 | 11.0 | 0.00 | 0.00 | 0.00 | 49 | 1015.6 |
| 20260507200104 | 79 | 169 | 2.0 | 9.0 | 0.00 | 0.00 | 0.00 | 52 | 1015.6 |
| 20260507195545 | 78 | 258 | 2.0 | 9.0 | 0.00 | 0.00 | 0.00 | 52 | 1015.7 |
| 20260507195045 | 78 | 246 | 3.0 | 11.0 | 0.00 | 0.00 | 0.00 | 50 | 1015.7 |
| 20260507194552 | 78 | 220 | 5.0 | 11.0 | 0.00 | 0.00 | 0.00 | 51 | 1015.7 |
| 20260507194042 | 79 | 235 | 2.0 | 10.0 | 0.00 | 0.00 | 0.00 | 52 | 1015.7 |
| 20260507193541 | 78 | 248 | 3.0 | 10.0 | 0.00 | 0.00 | 0.00 | 50 | 1015.7 |
| 20260507193051 | 78 | 256 | 0.0 | 7.0 | 0.00 | 0.00 | 0.00 | 50 | 1015.8 |
| 20260507192546 | 78 | 256 | 2.0 | 7.0 | 0.00 | 0.00 | 0.00 | 52 | 1015.9 |
| 20260507192045 | 78 | 235 | 3.0 | 7.0 | 0.00 | 0.00 | 0.00 | 53 | 1016.0 |
| 20260507191552 | 77 | 242 | 2.0 | 8.0 | 0.00 | 0.00 | 0.00 | 56 | 1015.9 |
| 20260507191044 | 76 | 270 | 4.0 | 8.0 | 0.00 | 0.00 | 0.00 | 53 | 1016.1 |
| 20260507190546 | 77 | 252 | 0.0 | 4.0 | 0.00 | 0.00 | 0.00 | 56 | 1016.0 |
| 20260507190057 | 76 | 242 | 1.0 | 8.0 | 0.00 | 0.00 | 0.00 | 58 | 1016.1 |
| 20260507185546 | 75 | 244 | 3.0 | 10.0 | 0.00 | 0.00 | 0.00 | 55 | 1016.3 |
| 20260507185042 | 75 | 210 | 4.0 | 10.0 | 0.00 | 0.00 | 0.00 | 56 | 1016.4 |
| 20260507184558 | 76 | 231 | 3.0 | 7.0 | 0.00 | 0.00 | 0.00 | 53 | 1016.5 |
| 20260507184046 | 76 | 233 | 2.0 | 7.0 | 0.00 | 0.00 | 0.00 | 53 | 1016.5 |
| 20260507183543 | 75 | 234 | 2.0 | 7.0 | 0.00 | 0.00 | 0.00 | 55 | 1016.6 |
| 20260507183054 | 76 | 236 | 1.0 | 6.0 | 0.00 | 0.00 | 0.00 | 54 | 1016.6 |
| 20260507182545 | 75 | 0 | 2.0 | 6.0 | 0.00 | 0.00 | 0.00 | 56 | 1016.6 |
| 20260507182046 | 75 | 224 | 2.0 | 6.0 | 0.00 | 0.00 | 0.00 | 56 | 1016.7 |
| 20260507181553 | 74 | 176 | 0.0 | 6.0 | 0.00 | 0.00 | 0.00 | 60 | 1016.7 |
| 20260507181045 | 74 | 233 | 3.0 | 6.0 | 0.00 | 0.00 | 0.00 | 55 | 1016.7 |
| 20260507180549 | 74 | 236 | 1.0 | 6.0 | 0.00 | 0.00 | 0.00 | 55 | 1016.7 |
| 20260507180054 | 75 | 240 | 2.0 | 6.0 | 0.00 | 0.00 | 0.00 | 54 | 1016.8 |
| 20260507175550 | 74 | 243 | 0.0 | 6.0 | 0.00 | 0.00 | 0.00 | 60 | 1016.8 |
| 20260507175046 | 73 | 232 | 0.0 | 6.0 | 0.00 | 0.00 | 0.00 | 59 | 1016.8 |
| 20260507174556 | 74 | 239 | 1.0 | 5.0 | 0.00 | 0.00 | 0.00 | 56 | 1016.8 |
| 20260507174042 | 72 | 234 | 1.0 | 6.0 | 0.00 | 0.00 | 0.00 | 58 | 1016.8 |
| 20260507173545 | 71 | 238 | 2.0 | 6.0 | 0.00 | 0.00 | 0.00 | 60 | 1016.9 |
| 20260507173050 | 71 | 234 | 1.0 | 5.0 | 0.00 | 0.00 | 0.00 | 60 | 1016.9 |
| 20260507172547 | 71 | 240 | 1.0 | 5.0 | 0.00 | 0.00 | 0.00 | 58 | 1016.8 |
| 20260507172043 | 72 | 247 | 1.0 | 5.0 | 0.00 | 0.00 | 0.00 | 57 | 1016.8 |
| 20260507171552 | 73 | 183 | 0.0 | 4.0 | 0.00 | 0.00 | 0.00 | 60 | 1016.8 |
| 20260507171045 | 72 | 201 | 0.0 | 5.0 | 0.00 | 0.00 | 0.00 | 65 | 1016.8 |
| 20260507170542 | 70 | 0 | 1.0 | 5.0 | 0.00 | 0.00 | 0.00 | 64 | 1016.8 |
| 20260507165545 | 70 | 229 | 0.0 | 5.0 | 0.00 | 0.00 | 0.00 | 67 | 1017.0 |
| 20260507165043 | 69 | 266 | 0.0 | 5.0 | 0.00 | 0.00 | 0.00 | 64 | 1016.8 |
| 20260507164603 | 69 | 281 | 1.0 | 4.0 | 0.00 | 0.00 | 0.00 | 63 | 1016.9 |
| 20260507164045 | 70 | 230 | 1.0 | 4.0 | 0.00 | 0.00 | 0.00 | 63 | 1016.9 |
| 20260507163543 | 70 | 219 | 0.0 | 1.0 | 0.00 | 0.00 | 0.00 | 63 | 1017.0 |
| 20260507163049 | 70 | 0 | 0.0 | 2.0 | 0.00 | 0.00 | 0.00 | 65 | 1016.9 |
| 20260507162543 | 69 | 0 | 0.0 | 2.0 | 0.00 | 0.00 | 0.00 | 65 | 1016.9 |
| 20260507162042 | 68 | 179 | 0.0 | 3.0 | 0.00 | 0.00 | 0.00 | 66 | 1016.8 |
| 20260507161551 | 67 | 0 | 0.0 | 3.0 | 0.00 | 0.00 | 0.00 | 68 | 1016.8 |
| 20260507161045 | 66 | 272 | 0.0 | 4.0 | 0.00 | 0.00 | 0.00 | 69 | 1016.8 |
| 20260507160545 | 65 | 0 | 0.0 | 5.0 | 0.00 | 0.00 | 0.00 | 71 | 1016.9 |
| 20260507160054 | 64 | 0 | 1.0 | 5.0 | 0.00 | 0.00 | 0.00 | 71 | 1017.0 |
| 20260507155547 | 64 | 229 | 0.0 | 3.0 | 0.00 | 0.00 | 0.00 | 71 | 1017.0 |
| 20260507155106 | 63 | 235 | 0.0 | 3.0 | 0.00 | 0.00 | 0.00 | 73 | 1017.0 |
| 20260507154556 | 63 | 258 | 1.0 | 3.0 | 0.00 | 0.00 | 0.00 | 73 | 1017.1 |
| 20260507154044 | 62 | 236 | 0.0 | 2.0 | 0.00 | 0.00 | 0.00 | 74 | 1017.0 |
| 20260507153545 | 62 | 0 | 0.0 | 2.0 | 0.00 | 0.00 | 0.00 | 74 | 1017.1 |
| 20260507153046 | 62 | 0 | 0.0 | 2.0 | 0.00 | 0.00 | 0.00 | 75 | 1017.1 |
| 20260507152545 | 61 | 0 | 0.0 | 3.0 | 0.00 | 0.00 | 0.00 | 75 | 1017.1 |
| 20260507152044 | 61 | 242 | 1.0 | 3.0 | 0.00 | 0.00 | 0.00 | 76 | 1017.1 |
| 20260507151550 | 61 | 244 | 0.0 | 3.0 | 0.00 | 0.00 | 0.00 | 76 | 1017.1 |
| 20260507151043 | 61 | 246 | 0.0 | 3.0 | 0.00 | 0.00 | 0.00 | 76 | 1017.0 |
| 20260507150543 | 61 | 248 | 0.0 | 2.0 | 0.00 | 0.00 | 0.00 | 75 | 1017.0 |
| 20260507150051 | 61 | 0 | 0.0 | 1.0 | 0.00 | 0.00 | 0.00 | 77 | 1016.9 |
| 20260507145543 | 60 | 0 | 0.0 | 1.0 | 0.00 | 0.00 | 0.00 | 79 | 1017.0 |
| 20260507145044 | 59 | 0 | 0.0 | 0.0 | 0.00 | 0.00 | 0.00 | 78 | 1017.1 |
| 20260507144555 | 60 | 0 | 0.0 | 1.0 | 0.00 | 0.00 | 0.00 | 78 | 1017.1 |
| 20260507144044 | 59 | 0 | 0.0 | 1.0 | 0.00 | 0.00 | 0.00 | 79 | 1016.9 |
| 20260507143545 | 58 | 177 | 0.0 | 1.0 | 0.00 | 0.00 | 0.00 | 79 | 1016.9 |
| 20260507143101 | 58 | 0 | 0.0 | 0.0 | 0.00 | 0.00 | 0.00 | 80 | 1016.8 |
| 20260507142545 | 58 | 0 | 0.0 | 0.0 | 0.00 | 0.00 | 0.00 | 81 | 1016.8 |
| 20260507142045 | 56 | 0 | 0.0 | 0.0 | 0.00 | 0.00 | 0.00 | 83 | 1016.8 |
| 20260507141555 | 55 | 0 | 0.0 | 1.0 | 0.00 | 0.00 | 0.00 | 84 | 1016.7 |
| 20260507141043 | 54 | 0 | 0.0 | 1.0 | 0.00 | 0.00 | 0.00 | 85 | 1016.7 |
| 20260507140545 | 54 | 0 | 0.0 | 1.0 | 0.00 | 0.00 | 0.00 | 84 | 1016.7 |
| 20260507140052 | 54 | 0 | 0.0 | 6.0 | 0.00 | 0.00 | 0.00 | 85 | 1016.7 |
| 20260507135545 | 54 | 0 | 0.0 | 6.0 | 0.00 | 0.00 | 0.00 | 85 | 1016.6 |
| 20260507135043 | 54 | 0 | 0.0 | 6.0 | 0.00 | 0.00 | 0.00 | 85 | 1016.5 |
| 20260507134554 | 54 | 0 | 0.0 | 0.0 | 0.00 | 0.00 | 0.00 | 85 | 1016.4 |
| 20260507134043 | 53 | 0 | 0.0 | 0.0 | 0.00 | 0.00 | 0.00 | 86 | 1016.4 |
| 20260507133544 | 53 | 0 | 0.0 | 0.0 | 0.00 | 0.00 | 0.00 | 86 | 1016.2 |
| 20260507133118 | 53 | 0 | 0.0 | 0.0 | 0.00 | 0.00 | 0.00 | 86 | 1016.2 |
| 20260507132545 | 53 | 0 | 0.0 | 0.0 | 0.00 | 0.00 | 0.00 | 86 | 1016.3 |
| 20260507132045 | 52 | 0 | 0.0 | 0.0 | 0.00 | 0.00 | 0.00 | 86 | 1016.2 |
| 20260507131555 | 52 | 0 | 0.0 | 0.0 | 0.00 | 0.00 | 0.00 | 86 | 1016.2 |
| 20260507131045 | 52 | 0 | 0.0 | 0.0 | 0.00 | 0.00 | 0.00 | 86 | 1016.2 |
| 20260507130545 | 52 | 0 | 0.0 | 0.0 | 0.00 | 0.00 | 0.00 | 85 | 1016.3 |
| 20260507130108 | 53 | 0 | 0.0 | 0.0 | 0.00 | 0.00 | 0.00 | 85 | 1016.1 |
| 20260507125543 | 53 | 0 | 0.0 | 0.0 | 0.00 | 0.00 | 0.00 | 85 | 1016.1 |
| 20260507125042 | 53 | 0 | 0.0 | 0.0 | 0.00 | 0.00 | 0.00 | 85 | 1016.0 |
| 20260507124548 | 53 | 0 | 0.0 | 0.0 | 0.00 | 0.00 | 0.00 | 85 | 1016.1 |
| 20260507124045 | 53 | 0 | 0.0 | 0.0 | 0.00 | 0.00 | 0.00 | 85 | 1016.1 |
| 20260507123546 | 53 | 0 | 0.0 | 1.0 | 0.00 | 0.00 | 0.00 | 85 | 1016.1 |
| 20260507123053 | 53 | 0 | 0.0 | 1.0 | 0.00 | 0.00 | 0.00 | 85 | 1016.1 |
| 20260507122542 | 53 | 202 | 0.0 | 1.0 | 0.00 | 0.00 | 0.00 | 85 | 1016.1 |
| 20260507122045 | 53 | 0 | 0.0 | 0.0 | 0.00 | 0.00 | 0.00 | 85 | 1016.2 |
| 20260507121604 | 53 | 0 | 0.0 | 0.0 | 0.00 | 0.00 | 0.00 | 85 | 1016.2 |
| 20260507121044 | 53 | 0 | 0.0 | 0.0 | 0.00 | 0.00 | 0.00 | 85 | 1016.2 |
| 20260507120543 | 53 | 0 | 0.0 | 0.0 | 0.00 | 0.00 | 0.00 | 85 | 1016.1 |
| 20260507120058 | 53 | 0 | 0.0 | 0.0 | 0.00 | 0.00 | 0.00 | 85 | 1016.2 |
| 20260507115545 | 53 | 0 | 0.0 | 1.0 | 0.00 | 0.00 | 0.00 | 85 | 1016.2 |
| 20260507115049 | 53 | 0 | 0.0 | 1.0 | 0.00 | 0.00 | 0.00 | 85 | 1016.3 |
| 20260507114633 | 53 | 0 | 0.0 | 0.0 | 0.00 | 0.00 | 0.00 | 85 | 1016.2 |
| 20260507114043 | 53 | 0 | 0.0 | 1.0 | 0.00 | 0.00 | 0.00 | 85 | 1016.3 |
| 20260507113548 | 53 | 0 | 0.0 | 1.0 | 0.00 | 0.00 | 0.00 | 85 | 1016.3 |
| 20260507113049 | 53 | 0 | 0.0 | 1.0 | 0.00 | 0.00 | 0.00 | 85 | 1016.3 |
| 20260507112545 | 53 | 0 | 0.0 | 0.0 | 0.00 | 0.00 | 0.00 | 85 | 1016.4 |
| 20260507112045 | 53 | 0 | 0.0 | 0.0 | 0.00 | 0.00 | 0.00 | 85 | 1016.4 |
| 20260507111558 | 53 | 0 | 0.0 | 0.0 | 0.00 | 0.00 | 0.00 | 84 | 1016.5 |
| 20260507111042 | 54 | 0 | 0.0 | 1.0 | 0.00 | 0.00 | 0.00 | 84 | 1016.4 |
| 20260507110542 | 54 | 0 | 0.0 | 1.0 | 0.00 | 0.00 | 0.00 | 84 | 1016.4 |
| 20260507110052 | 54 | 0 | 0.0 | 0.0 | 0.00 | 0.00 | 0.00 | 85 | 1016.5 |
| 20260507105545 | 54 | 0 | 0.0 | 0.0 | 0.00 | 0.00 | 0.00 | 85 | 1016.5 |
| 20260507105045 | 53 | 0 | 0.0 | 0.0 | 0.00 | 0.00 | 0.00 | 85 | 1016.5 |
| 20260507104550 | 53 | 0 | 0.0 | 0.0 | 0.00 | 0.00 | 0.00 | 85 | 1016.5 |
| 20260507104043 | 53 | 0 | 0.0 | 0.0 | 0.00 | 0.00 | 0.00 | 84 | 1016.7 |
| 20260507103545 | 53 | 0 | 0.0 | 0.0 | 0.00 | 0.00 | 0.00 | 84 | 1016.7 |
| 20260507103049 | 53 | 0 | 0.0 | 0.0 | 0.00 | 0.00 | 0.00 | 84 | 1016.7 |
| 20260507102543 | 53 | 0 | 0.0 | 0.0 | 0.00 | 0.00 | 0.00 | 84 | 1016.7 |
| 20260507102045 | 53 | 0 | 0.0 | 0.0 | 0.00 | 0.00 | 0.00 | 84 | 1016.8 |
| 20260507101550 | 53 | 0 | 0.0 | 0.0 | 0.00 | 0.00 | 0.00 | 83 | 1016.7 |
| 20260507101044 | 53 | 0 | 0.0 | 0.0 | 0.00 | 0.00 | 0.00 | 83 | 1016.8 |
| 20260507100542 | 54 | 0 | 0.0 | 0.0 | 0.00 | 0.00 | 0.00 | 83 | 1016.8 |
| 20260507100052 | 54 | 0 | 0.0 | 0.0 | 0.00 | 0.00 | 0.00 | 84 | 1016.9 |
| 20260507095545 | 53 | 0 | 0.0 | 0.0 | 0.00 | 0.00 | 0.00 | 84 | 1017.0 |
| 20260507095043 | 53 | 0 | 0.0 | 0.0 | 0.00 | 0.00 | 0.00 | 84 | 1017.0 |
| 20260507094549 | 53 | 0 | 0.0 | 0.0 | 0.00 | 0.00 | 0.00 | 83 | 1017.0 |
| 20260507094045 | 54 | 0 | 0.0 | 0.0 | 0.00 | 0.00 | 0.00 | 82 | 1017.0 |
| 20260507093545 | 54 | 0 | 0.0 | 0.0 | 0.00 | 0.00 | 0.00 | 82 | 1017.1 |
| 20260507093049 | 54 | 0 | 0.0 | 0.0 | 0.00 | 0.00 | 0.00 | 82 | 1017.1 |
| 20260507092545 | 55 | 0 | 0.0 | 0.0 | 0.00 | 0.00 | 0.00 | 82 | 1017.2 |
| 20260507092044 | 55 | 0 | 0.0 | 0.0 | 0.00 | 0.00 | 0.00 | 82 | 1017.2 |
| 20260507091549 | 54 | 0 | 0.0 | 0.0 | 0.00 | 0.00 | 0.00 | 82 | 1017.3 |
| 20260507091045 | 54 | 0 | 0.0 | 0.0 | 0.00 | 0.00 | 0.00 | 82 | 1017.3 |
| 20260507090545 | 54 | 0 | 0.0 | 0.0 | 0.00 | 0.00 | 0.00 | 82 | 1017.4 |
| 20260507090049 | 54 | 0 | 0.0 | 0.0 | 0.00 | 0.00 | 0.00 | 82 | 1017.4 |
| 20260507085543 | 54 | 0 | 0.0 | 0.0 | 0.00 | 0.00 | 0.00 | 83 | 1017.5 |
| 20260507085043 | 54 | 0 | 0.0 | 0.0 | 0.00 | 0.00 | 0.00 | 83 | 1017.5 |
| 20260507084557 | 54 | 0 | 0.0 | 0.0 | 0.00 | 0.00 | 0.00 | 83 | 1017.6 |
| 20260507084048 | 54 | 0 | 0.0 | 0.0 | 0.00 | 0.00 | 0.00 | 82 | 1017.6 |
| 20260507083546 | 54 | 0 | 0.0 | 0.0 | 0.00 | 0.00 | 0.00 | 82 | 1017.7 |
| 20260507083051 | 54 | 0 | 0.0 | 0.0 | 0.00 | 0.00 | 0.00 | 82 | 1017.7 |
| 20260507082546 | 54 | 0 | 0.0 | 0.0 | 0.00 | 0.00 | 0.00 | 82 | 1017.7 |
| 20260507082045 | 54 | 0 | 0.0 | 0.0 | 0.00 | 0.00 | 0.00 | 82 | 1017.6 |
| 20260507081548 | 54 | 0 | 0.0 | 0.0 | 0.00 | 0.00 | 0.00 | 82 | 1017.7 |
| 20260507081045 | 54 | 0 | 0.0 | 0.0 | 0.00 | 0.00 | 0.00 | 82 | 1017.7 |
| 20260507080546 | 55 | 0 | 0.0 | 0.0 | 0.00 | 0.00 | 0.00 | 82 | 1017.7 |
| 20260507080117 | 54 | 0 | 0.0 | 0.0 | 0.00 | 0.00 | 0.00 | 82 | 1017.7 |
| 20260507075545 | 54 | 0 | 0.0 | 0.0 | 0.00 | 0.00 | 0.00 | 82 | 1017.7 |
| 20260507075043 | 54 | 0 | 0.0 | 0.0 | 0.00 | 0.00 | 0.00 | 82 | 1017.7 |
| 20260507074549 | 55 | 0 | 0.0 | 0.0 | 0.00 | 0.00 | 0.00 | 82 | 1017.8 |
| 20260507074042 | 55 | 0 | 0.0 | 0.0 | 0.00 | 0.00 | 0.00 | 82 | 1017.7 |
| 20260507073542 | 55 | 0 | 0.0 | 0.0 | 0.00 | 0.00 | 0.00 | 81 | 1017.6 |
| 20260507073105 | 55 | 0 | 0.0 | 0.0 | 0.00 | 0.00 | 0.00 | 81 | 1017.7 |
| 20260507072543 | 55 | 0 | 0.0 | 0.0 | 0.00 | 0.00 | 0.00 | 82 | 1017.7 |
| 20260507072045 | 55 | 0 | 0.0 | 0.0 | 0.00 | 0.00 | 0.00 | 80 | 1017.7 |
| 20260507071554 | 55 | 0 | 0.0 | 0.0 | 0.00 | 0.00 | 0.00 | 81 | 1017.8 |
| 20260507071045 | 55 | 0 | 0.0 | 0.0 | 0.00 | 0.00 | 0.00 | 81 | 1017.8 |
| 20260507070545 | 55 | 0 | 0.0 | 0.0 | 0.00 | 0.00 | 0.00 | 81 | 1017.8 |
| 20260507070100 | 55 | 0 | 0.0 | 0.0 | 0.00 | 0.00 | 0.00 | 81 | 1017.8 |
| 20260507065548 | 54 | 0 | 0.0 | 0.0 | 0.00 | 0.00 | 0.00 | 82 | 1018.0 |
| 20260507065042 | 54 | 0 | 0.0 | 0.0 | 0.00 | 0.00 | 0.00 | 81 | 1018.0 |
| 20260507064600 | 55 | 0 | 0.0 | 0.0 | 0.00 | 0.00 | 0.00 | 80 | 1018.0 |
| 20260507064044 | 55 | 0 | 0.0 | 0.0 | 0.00 | 0.00 | 0.00 | 79 | 1017.9 |
| 20260507063544 | 56 | 0 | 0.0 | 0.0 | 0.00 | 0.00 | 0.00 | 79 | 1018.0 |
| 20260507063059 | 56 | 0 | 0.0 | 0.0 | 0.00 | 0.00 | 0.00 | 78 | 1018.1 |
| 20260507062545 | 57 | 0 | 0.0 | 0.0 | 0.00 | 0.00 | 0.00 | 78 | 1018.1 |
| 20260507062045 | 57 | 0 | 0.0 | 0.0 | 0.00 | 0.00 | 0.00 | 76 | 1018.0 |
| 20260507061555 | 58 | 0 | 0.0 | 0.0 | 0.00 | 0.00 | 0.00 | 76 | 1018.0 |
| 20260507061041 | 58 | 0 | 0.0 | 1.0 | 0.00 | 0.00 | 0.00 | 76 | 1018.0 |
| 20260507060544 | 59 | 0 | 0.0 | 3.0 | 0.00 | 0.00 | 0.00 | 75 | 1018.0 |
| 20260507060056 | 59 | 0 | 0.0 | 3.0 | 0.00 | 0.00 | 0.00 | 75 | 1017.9 |
| 20260507055546 | 59 | 240 | 0.0 | 3.0 | 0.00 | 0.00 | 0.00 | 74 | 1018.0 |
| 20260507055046 | 59 | 231 | 1.0 | 3.0 | 0.00 | 0.00 | 0.00 | 74 | 1018.0 |
| 20260507054553 | 59 | 0 | 1.0 | 3.0 | 0.00 | 0.00 | 0.00 | 74 | 1018.0 |
| 20260507054043 | 59 | 230 | 1.0 | 3.0 | 0.00 | 0.00 | 0.00 | 74 | 1018.0 |
| 20260507053543 | 59 | 238 | 0.0 | 3.0 | 0.00 | 0.00 | 0.00 | 73 | 1018.1 |
| 20260507053113 | 60 | 235 | 0.0 | 3.0 | 0.00 | 0.00 | 0.00 | 73 | 1018.0 |
| 20260507052545 | 60 | 239 | 1.0 | 3.0 | 0.00 | 0.00 | 0.00 | 73 | 1017.9 |
| 20260507052043 | 60 | 240 | 0.0 | 4.0 | 0.00 | 0.00 | 0.00 | 73 | 1017.9 |
| 20260507051552 | 60 | 234 | 2.0 | 6.0 | 0.00 | 0.00 | 0.00 | 72 | 1017.9 |
| 20260507051045 | 60 | 235 | 2.0 | 6.0 | 0.00 | 0.00 | 0.00 | 72 | 1017.9 |
| 20260507050542 | 60 | 244 | 1.0 | 4.0 | 0.00 | 0.00 | 0.00 | 72 | 1017.9 |
| 20260507050057 | 60 | 233 | 1.0 | 4.0 | 0.00 | 0.00 | 0.00 | 72 | 1017.8 |
| 20260507045545 | 61 | 231 | 0.0 | 4.0 | 0.00 | 0.00 | 0.00 | 72 | 1017.8 |
| 20260507045042 | 61 | 235 | 1.0 | 3.0 | 0.00 | 0.00 | 0.00 | 72 | 1017.9 |
| 20260507044553 | 61 | 232 | 0.0 | 3.0 | 0.00 | 0.00 | 0.00 | 72 | 1017.8 |
| 20260507044045 | 61 | 235 | 1.0 | 3.0 | 0.00 | 0.00 | 0.00 | 72 | 1017.8 |
| 20260507043545 | 61 | 241 | 0.0 | 3.0 | 0.00 | 0.00 | 0.00 | 71 | 1017.8 |
| 20260507043049 | 61 | 240 | 1.0 | 4.0 | 0.00 | 0.00 | 0.00 | 71 | 1017.8 |
| 20260507042546 | 61 | 235 | 1.0 | 5.0 | 0.00 | 0.00 | 0.00 | 71 | 1017.8 |
| 20260507042045 | 62 | 237 | 1.0 | 5.0 | 0.00 | 0.00 | 0.00 | 70 | 1017.8 |
| 20260507041554 | 62 | 238 | 2.0 | 4.0 | 0.00 | 0.00 | 0.00 | 70 | 1017.8 |
| 20260507041047 | 62 | 240 | 1.0 | 4.0 | 0.00 | 0.00 | 0.00 | 70 | 1017.8 |
| 20260507040544 | 62 | 237 | 2.0 | 4.0 | 0.00 | 0.00 | 0.00 | 69 | 1017.7 |
| 20260507040056 | 62 | 240 | 2.0 | 5.0 | 0.00 | 0.00 | 0.00 | 69 | 1017.7 |
| 20260507035543 | 62 | 240 | 2.0 | 6.0 | 0.00 | 0.00 | 0.00 | 69 | 1017.6 |
| 20260507035043 | 62 | 237 | 2.0 | 6.0 | 0.00 | 0.00 | 0.00 | 68 | 1017.6 |
| 20260507034554 | 63 | 232 | 1.0 | 4.0 | 0.00 | 0.00 | 0.00 | 68 | 1017.5 |
| 20260507034045 | 63 | 237 | 1.0 | 4.0 | 0.00 | 0.00 | 0.00 | 67 | 1017.4 |
| 20260507033547 | 63 | 239 | 1.0 | 6.0 | 0.00 | 0.00 | 0.00 | 67 | 1017.3 |
| 20260507033054 | 63 | 240 | 0.0 | 6.0 | 0.00 | 0.00 | 0.00 | 67 | 1017.2 |
| 20260507032544 | 63 | 214 | 2.0 | 6.0 | 0.00 | 0.00 | 0.00 | 67 | 1017.2 |
| 20260507032043 | 64 | 221 | 1.0 | 6.0 | 0.00 | 0.00 | 0.00 | 67 | 1017.2 |
| 20260507031552 | 64 | 233 | 2.0 | 6.0 | 0.00 | 0.00 | 0.00 | 66 | 1017.1 |
| 20260507031046 | 64 | 227 | 2.0 | 7.0 | 0.00 | 0.00 | 0.00 | 66 | 1017.1 |
| 20260507030543 | 64 | 233 | 2.0 | 7.0 | 0.00 | 0.00 | 0.00 | 66 | 1017.1 |
| 20260507030051 | 65 | 261 | 3.0 | 6.0 | 0.00 | 0.00 | 0.00 | 66 | 1017.1 |
| 20260507025542 | 65 | 237 | 1.0 | 6.0 | 0.00 | 0.00 | 0.00 | 65 | 1017.0 |
| 20260507025045 | 65 | 237 | 2.0 | 8.0 | 0.00 | 0.00 | 0.00 | 65 | 1016.8 |
| 20260507024605 | 66 | 239 | 3.0 | 8.0 | 0.00 | 0.00 | 0.00 | 64 | 1016.9 |
| 20260507024048 | 66 | 257 | 2.0 | 8.0 | 0.00 | 0.00 | 0.00 | 63 | 1016.7 |
| 20260507023550 | 66 | 223 | 2.0 | 8.0 | 0.00 | 0.00 | 0.00 | 63 | 1016.7 |